{"data":{"norad_id":56104,"intl_designator":"2023-046M","name":"STARLINK-6062","alt_names":[],"object_type":"PAYLOAD","status":"ACTIVE","operator":null,"country":"US","launch_date":"2023-03-29","launch_site_code":"AFETR","launch_vehicle":null,"mission":null,"orbit_class":"UNKNOWN","rcs_meters":null,"size_class":null,"mass_kg":null,"dimensions":null,"purposes":["comms"],"wikipedia_slug":null,"has_3d_model":false,"image_url":null,"decayed_at":null,"tle_current":{"epoch":"2026-09-20T22:16:34.663872Z","epoch_age_seconds":71662,"freshness":"FRESH","line1":"1 56104U 23046M   26263.92817898  .00000064  00000+0  11857-4 0  9997","line2":"2 56104  43.0038 138.7040 0001325 260.0568 100.0134 15.27577555191893","mean_motion":15.27577555,"eccentricity":0.0001325,"inclination_deg":43.0038,"raan_deg":138.704,"arg_perigee_deg":260.0568,"mean_anomaly_deg":100.0134,"bstar":1.1857e-5,"rev_number":19189,"period_min":94.266899594502,"perigee_km":482.14730913122,"apogee_km":483.96552538679,"semimajor_km":6861.193417259,"source":"CELESTRAK","updated_at":"2026-09-21T09:00:33.363897Z"}}}